Location: ????????
(55.0559°N, 39.1270°E)
Time: 17:46:14
(UTC+00:00)

PKM - Pass Details

Date: 15 November 2025
Orbit: 394 x 13733 km, 55.4° (Epoch: 14 December)

Event Time Altitude Azimuth Distance (km) Brightness Sun altitude
Exits shadow 03:19:04 19° 283° (WNW) 2,157 6.1 -13.6°
Maximum altitude 03:22:52 60° 208° (SSW) 684 4.2 -13.0°
Drops below altitude 10° 03:25:43 10° 127° (SE) 1,541 7.3 -12.6°
Sets 03:27:15 0° 122° (ESE) 2,303 8.6 -12.4°
